DECAYED

FENGYUN 1C DEB, 31624 (Decayed)

Orbit data source: Space-Track

FENGYUN 1C DEB, 31624 was space debris in SSO originally from a launch on Mon, 10 May 1999 UTC launched from the Taiyaun Space Center, China (TSC). Fengyun 1C debris stems from the Chinese weather satellite Fengyun-1C, which was intentionally destroyed by a Chinese anti-satellite missile in 2007. This event dramatically increased the amount of space debris, with thousands of trackable fragments posing hazards to satellites and human spaceflight. The Fengyun 1C debris cloud has become a focal point in discussions about space sustainability and the need for international regulations to prevent the creation of new debris.

Not visible in the next 10 days
Identifier
31624, 1999-025CAE
Orbit
Decayed
Country
Flag of CNCN / PRC
Related business
Manufacturer
Unknown
Mission
Decayed spacecraft
Bus & Motor
Unknown
Mass
Unknown
Launch date (UTC)
1999-05-10 (27 years ago)
Launch vehicle
Unknown
Launch site
Taiyaun Space Center, China (TSC)
Object type
Payload
Rocket body
Debris
Shape & HBR
Unknown shape, 0.1 m
Radar Cross Section
Small (<0.1 m²)

Expand to show TLE details & history
Last TLE update: 8 months ago

TLE from 8 months ago
0 FENGYUN 1C DEB
1 31624U 99025CAE 25294.20216165  .00468478  00000-0  11035-1 0  9994
2 31624  99.6154 173.5392 0010081  43.4336 316.7695 15.40020527968078
Epoch: 2025-10-21T04:51Z
TLE epoch observation values (Epoch: 2025-10-21T04:51:06.766Z)
Latitude
-0.00006°
Longitude
70.86751°
Altitude
444.083 km
Speed
7.648 km/s
True Right ascension
11h 34m 09s
True Declination
0° 00' 00"
Sunlit
Object was in daylight at epoch
Visualization orbit readout
Latitude
Unknown
Longitude
Unknown
Altitude
Unknown
Speed
Unknown
Apparent Right ascension
Unknown
Apparent Declination
Unknown
Sunlit
N/A
Visualization observer readout
Local Sidereal Time
06:19:33
Azimuth
Unknown
Elevation
Unknown
Doppler factor
Unknown
Orbital elements
Apogee altitude
449.974 km
Perigee altitude
436.221 km
Semi-major axis
6,821.234 km
Eccentricity
0.00101
Inclination
99.6154°
RAAN
173.5392°
Arg. of periapsis
43.4336°
True anomaly
316.6903°
Mean anomaly
316.7695°
Eccentric anomaly
316.72991°
Mean motion
3.85255 °/min
Orbital period
93.44 mins
BSTAR
0.011035
Loading maneuver chart data...
Computing Atmospheric mass density...

Documentation

Showing up to 5 results
|